TimePST,TemperatureF,Dew PointF,Humidity,Sea Level PressureIn,VisibilityMPH,Wind Direction,Wind SpeedMPH,Gust SpeedMPH,PrecipitationIn,Events,Conditions,WindDirDegrees,DateUTC
12:56 AM,21.9,14.0,72,30.45,10.0,Calm,Calm,-,N/A,,Clear,0,2013-01-18 08:56:00
1:56 AM,23.0,12.9,65,30.43,10.0,Calm,Calm,-,N/A,,Clear,0,2013-01-18 09:56:00
2:56 AM,21.9,12.9,68,30.44,10.0,Calm,Calm,-,N/A,,Clear,0,2013-01-18 10:56:00
3:56 AM,21.9,12.9,68,30.43,10.0,Calm,Calm,-,N/A,,Clear,0,2013-01-18 11:56:00
4:56 AM,21.9,12.0,66,30.43,10.0,Calm,Calm,-,N/A,,Clear,0,2013-01-18 12:56:00
5:56 AM,21.9,12.9,68,30.41,10.0,Calm,Calm,-,N/A,,Clear,0,2013-01-18 13:56:00
6:56 AM,21.9,12.9,68,30.42,10.0,Calm,Calm,-,N/A,,Clear,0,2013-01-18 14:56:00
7:56 AM,21.9,12.9,68,30.42,10.0,Calm,Calm,-,N/A,,Clear,0,2013-01-18 15:56:00
8:56 AM,24.1,14.0,65,30.44,10.0,Calm,Calm,-,N/A,,Clear,0,2013-01-18 16:56:00
9:56 AM,26.1,15.1,63,30.43,10.0,Calm,Calm,-,N/A,,Clear,0,2013-01-18 17:56:00
10:56 AM,27.0,15.1,61,30.42,10.0,Calm,Calm,-,N/A,,Clear,0,2013-01-18 18:56:00
11:56 AM,30.0,16.0,56,30.40,10.0,Calm,Calm,-,N/A,,Clear,0,2013-01-18 19:56:00
12:56 PM,32.0,16.0,52,30.38,10.0,Calm,Calm,-,N/A,,Clear,0,2013-01-18 20:56:00
1:56 PM,34.0,17.1,50,30.35,10.0,Calm,Calm,-,N/A,,Clear,0,2013-01-18 21:56:00
2:56 PM,35.1,17.1,48,30.35,10.0,Variable,4.6,-,N/A,,Clear,0,2013-01-18 22:56:00
3:56 PM,30.9,17.1,57,30.37,10.0,Calm,Calm,-,N/A,,Clear,0,2013-01-18 23:56:00
4:56 PM,28.0,15.1,58,30.38,10.0,Calm,Calm,-,N/A,,Clear,0,2013-01-19 00:56:00
5:56 PM,26.1,14.0,60,30.39,10.0,Calm,Calm,-,N/A,,Clear,0,2013-01-19 01:56:00
6:56 PM,25.0,12.9,60,30.40,10.0,Calm,Calm,-,N/A,,Clear,0,2013-01-19 02:56:00
7:56 PM,24.1,12.9,62,30.40,10.0,Calm,Calm,-,N/A,,Clear,0,2013-01-19 03:56:00
8:56 PM,21.0,12.9,71,30.42,10.0,Calm,Calm,-,N/A,,Clear,0,2013-01-19 04:56:00
9:56 PM,19.9,12.0,71,30.43,10.0,Calm,Calm,-,N/A,,Clear,0,2013-01-19 05:56:00
10:56 PM,19.9,10.9,68,30.42,10.0,Calm,Calm,-,N/A,,Clear,0,2013-01-19 06:56:00
11:56 PM,18.0,10.9,74,30.43,10.0,Calm,Calm,-,N/A,,Clear,0,2013-01-19 07:56:00